map of VAN home
VAN - Airport
Location
City:  Van, Van, Turkey
Name:Van Ferit Melen Airport
ICAO:LTCI
IATA:VAN

Details
Type:Airport (Aerodrome, Airfield)
Use:Public/Civil
Latitude:3828'06"N (38.468219)
Longitude:4319'56"E (43.332300)
Datum:WGS 1984
Elevation:5480 ft (1670 m)
Variation:5.69E (WMM2015 magnetic declination)
0.08 annual change
Runways:1
Longest:9022 × 148 ft (2750 × 45 m), paved

Time
Time Zone:UTC+3
Local Time:

Weather
METAR:LTCI 050350Z 15005KT 9999 SCT035 BKN080 03/M04 Q1022 NOSIG

Related Locations
Nearby:
Farthest:GMR: 11365 mi / 18290 km
Mangareva [Totegegie], Gambier Islands, PF

Find:

   beyond  
but within

Other Information
Maps:
NOTAMs:
Links:
Sources:

  
flag of Turkey   

Sectional Chart

Flight Planning
at skyvector.com

Satellite Image

Google Maps Satellite view

 

Copyright © 2004-2016 Karl L. Swartz. All rights reserved.
The Great Circle Mapper name and logo are trademarks of the Great Circle Mapper.
All other trademarks mentioned herein belong to their respective owners.
Please see credits for attibutions and further copyright information.

  Follow gcmap on Facebook Follow gcmap on Twitter Follow gcmap on Google+ GCmap on LinkedIn

hCard Microformat

Geo Microformat